Regional Weather Roundup
Issued by NWS Spokane, WA

Home | Current Version | Previous Version | Text Only | Print | Product List | Glossary On
Versions: 1 2 3 4 5 6 7 8 9 10 11 12 13 14 15 16 17 18 19 20 21 22 23 24 25 26 27 28 29 30 31 32 33 34 35 36 37 38 39 40 41 42 43 44 45 46 47 48 49 50
000
NZUS01 KOTX 250525
RWROTX

Eastern Washington/Northern Idaho Roundup
National Weather Service, Spokane WA
1000 PM PDT WED MAY 24 2017

Note: "fair" indicated few or no clouds below 12,000 feet with no
significant weather and/or obstructions to visibility.

...Northeast Washington and Northern Idaho Panhandle...

CITY           SKY/WX    TMP DP  RH WIND       PRES   REMARKS
Spokane Intl   MOCLDY    52  35  52 N5        29.76R
Spokane Downto PTCLDY    54  38  54 VRB3      29.77R
Coeur d Alene  PTCLDY    51  36  56 N6        29.75R
Deer Park      MOCLDY    51  36  56 W7        29.76R
Sandpoint      CLOUDY    48  36  61 CALM      29.74R
Bonners Ferry  CLOUDY    46  39  76 NW6       29.74R

...Southeast Washington and southern Idaho Panhandle...

CITY           SKY/WX    TMP DP  RH WIND       PRES   REMARKS
Walla Walla    CLOUDY    59  39  47 SW7       29.78S
Pullman/Moscow CLOUDY    54  33  45 W7        29.76S
Lewiston       CLOUDY    59  33  37 W5        29.75R
Lowell           N/A     53  38  56 N3        29.78R
Grangeville    FAIR      48  34  57 NW3       29.78S

...Columbia Basin...

CITY           SKY/WX    TMP DP  RH WIND       PRES   REMARKS
Ephrata        CLOUDY    56  31  38 NW12      29.79R
Moses Lake     CLOUDY    57  33  40 NW13      29.79R
Pasco          CLOUDY    57  38  48 NW13      29.79R
Richland       CLOUDY    61  34  36 NW10G16   29.79S
Hermiston      CLOUDY    61  36  39 W8        29.80R
Pendleton      CLOUDY    55  42  61 NW12      29.79R

...East Slopes Cascades...

CITY           SKY/WX    TMP DP  RH WIND       PRES   REMARKS
The Dalles     PTCLDY    59  41  51 W9        29.85R
Yakima         CLOUDY    59  36  42 NW12      29.83R
Ellensburg     CLOUDY    53  34  48 NW21      29.85R
Stampede Pass  CLOUDY    38  34  85 VRB6      29.91S
Wenatchee      CLOUDY    56  33  42 NW15      29.81S
Omak           CLOUDY    52  39  61 CALM      29.78F
Chelan           N/A     59  30  33 W10         N/A
Sunnyside      CLOUDY    56  34  43 NW5       29.81S

...Southern British Columbia...

CITY           SKY/WX    TMP DP  RH WIND       PRES   REMARKS
Penticton      MOCLDY    55  43  62 NW6       29.80R
Cranbrook      CLOUDY    45  34  65 N3        29.70R
Osoyoos          N/A     59  41  51 NE2         N/A
Creston          N/A     48  37  66 NW6         N/A

...Western Montana...

CITY           SKY/WX    TMP DP  RH WIND       PRES   REMARKS
Kalispell      CLOUDY    47  38  71 CALM      29.71R
Missoula       MOCLDY    48  31  51 VRB6      29.73R

...Neighboring Cities...

CITY           SKY/WX    TMP DP  RH WIND       PRES   REMARKS
Seattle        PTCLDY    57  39  51 N7        29.95R
Portland       PTCLDY    54  43  66 NW6       29.96R
Boise          CLEAR     58  26  29 NW24G30   29.67R
Great Falls    CLOUDY    51  24  34 W24G33    29.54R
Calgary        LGT RAIN  48  41  76 NW28G37   29.52R



USA.gov is the U.S. government's official web portal to all federal, state and local government web resources and services.